Location: Pel�-Koumbol�
(14.9505°N, 3.0798°W)
Time: 09:00:00
(UTC+00:00)

GPS 2-14 Rocket1 - Pass Details

Date: 17 February 2020
Orbit: 477 x 542 km, 20.7° (Epoch: 08 April)

Event Time Altitude Azimuth Distance (km) Brightness Sun altitude
Exits shadow 05:12:10 24° 200° (SSW) 1,113 4.2 -20.8°
Maximum altitude 05:13:44 32° 159° (SSE) 911 4.1 -20.4°
Drops below altitude 10° 05:17:26 10° 95° (E) 1,767 6.6 -19.5°
Sets 05:19:52 0° 85° (E) 2,665 7.8 -18.9°
